• In Denmark
  • List of Countries
  • For 7 days
  • Water Temperature
  • Satellite Maps
  • Weather Map
  • Weather Widgets
  • user-avatar
    Login

    Hourly Weather Esbjerg

    Today, 25 September, Tuesday

    Time Temperature Precipitation Wind Pressure Humidity
    00:00 +6°C° 0 mm 7 mps 773 mmHg 73%
    01:00 +7°C° 0 mm 6 mps 773 mmHg 75%
    02:00 +5°C° 0 mm 6 mps 774 mmHg 76%
    03:00 +6°C° 0 mm 5 mps 774 mmHg 77%
    04:00 +6°C° 0 mm 5 mps 774 mmHg 78%
    05:00 +6°C° 0 mm 4 mps 774 mmHg 79%
    06:00 +6°C° 0 mm 4 mps 775 mmHg 80%
    07:00 +6°C° 0 mm 4 mps 775 mmHg 80%
    08:00 +8°C° 0 mm 4 mps 775 mmHg 75%
    09:00 +11°C° 0 mm 4 mps 776 mmHg 69%
    10:00 +13°C° 0 mm 4 mps 776 mmHg 64%
    11:00 +13°C° 0 mm 5 mps 776 mmHg 63%
    12:00 +13°C° 0 mm 5 mps 776 mmHg 62%
    13:00 +14°C° 0 mm 5 mps 776 mmHg 61%
    14:00 +14°C° 0 mm 6 mps 776 mmHg 63%
    15:00 +13°C° 0 mm 6 mps 775 mmHg 65%
    16:00 +12°C° 0 mm 7 mps 775 mmHg 67%
    17:00 +11°C° 0 mm 6 mps 775 mmHg 71%
    18:00 +11°C° 0 mm 6 mps 775 mmHg 75%
    19:00 +10°C° 0 mm 6 mps 774 mmHg 79%
    20:00 +10°C° 0 mm 7 mps 774 mmHg 79%
    21:00 +10°C° 0 mm 7 mps 774 mmHg 79%
    22:00 +10°C° 0 mm 8 mps 774 mmHg 79%
    23:00 +10°C° 0 mm 8 mps 773 mmHg 78%

    Tomorrow, 26 September, Wednesday

    Time Temperature Precipitation Wind Pressure Humidity
    00:00 +10°C° 0 mm 9 mps 773 mmHg 77%
    01:00 +11°C° 0 mm 10 mps 772 mmHg 76%
    02:00 +11°C° 0 mm 10 mps 772 mmHg 75%
    03:00 +11°C° 0 mm 11 mps 771 mmHg 73%
    04:00 +12°C° 0 mm 11 mps 771 mmHg 72%
    05:00 +12°C° 0 mm 11 mps 770 mmHg 72%
    06:00 +12°C° 0 mm 12 mps 769 mmHg 73%
    07:00 +13°C° 0 mm 12 mps 769 mmHg 73%
    08:00 +13°C° 0 mm 13 mps 769 mmHg 73%
    09:00 +14°C° 0 mm 13 mps 768 mmHg 73%
    10:00 +14°C° 0 mm 13 mps 768 mmHg 73%
    11:00 +14°C° 0 mm 13 mps 768 mmHg 74%
    12:00 +14°C° 0 mm 13 mps 768 mmHg 76%
    13:00 +14°C° 0 mm 13 mps 767 mmHg 77%
    14:00 +14°C° 0 mm 13 mps 767 mmHg 79%
    15:00 +14°C° 0 mm 12 mps 767 mmHg 80%
    16:00 +15°C° 0 mm 12 mps 767 mmHg 82%
    17:00 +14°C° 0 mm 12 mps 767 mmHg 83%
    18:00 +14°C° 0 mm 11 mps 767 mmHg 84%
    19:00 +14°C° 0 mm 11 mps 767 mmHg 86%
    20:00 +14°C° 0 mm 10 mps 767 mmHg 87%
    21:00 +14°C° 0 mm 10 mps 767 mmHg 87%
    22:00 +14°C° 0 mm 10 mps 767 mmHg 88%
    23:00 +15°C° 0 mm 9 mps 767 mmHg 89%

    Day after tomorrow, 27 September, Thursday

    Time Temperature Precipitation Wind Pressure Humidity
    00:00 +15°C° 0 mm 9 mps 767 mmHg 89%
    01:00 +15°C° 0 mm 9 mps 767 mmHg 90%
    02:00 +15°C° 0 mm 8 mps 767 mmHg 90%
    03:00 +15°C° 0 mm 8 mps 767 mmHg 91%
    04:00 +13°C° 0 mm 8 mps 767 mmHg 91%
    05:00 +13°C° 0 mm 8 mps 767 mmHg 91%
    06:00 +13°C° 0 mm 8 mps 767 mmHg 92%
    07:00 +14°C° 0 mm 7 mps 767 mmHg 92%
    08:00 +15°C° 0 mm 7 mps 767 mmHg 89%
    09:00 +16°C° 0 mm 7 mps 767 mmHg 85%
    10:00 +17°C° 0 mm 7 mps 767 mmHg 82%
    11:00 +17°C° 0 mm 8 mps 767 mmHg 80%
    12:00 +18°C° 0 mm 8 mps 767 mmHg 78%
    13:00 +18°C° 0 mm 8 mps 766 mmHg 75%
    14:00 +18°C° 0 mm 9 mps 766 mmHg 77%
    15:00 +17°C° 0 mm 9 mps 765 mmHg 78%
    16:00 +17°C° 0 mm 9 mps 765 mmHg 80%
    17:00 +16°C° 0 mm 9 mps 764 mmHg 80%
    18:00 +16°C° 0 mm 9 mps 764 mmHg 80%
    19:00 +15°C° 0 mm 9 mps 763 mmHg 81%
    20:00 +13°C° 0 mm 9 mps 763 mmHg 82%
    21:00 +13°C° 0 mm 8 mps 763 mmHg 82%
    22:00 +12°C° 0 mm 8 mps 763 mmHg 83%
    23:00 +12°C° 0 mm 8 mps 764 mmHg 81%

    28 September, Friday

    Time Temperature Precipitation Wind Pressure Humidity
    00:00 +12°C° 0 mm 8 mps 764 mmHg 79%
    01:00 +11°C° 0 mm 8 mps 764 mmHg 77%
    02:00 +11°C° 0 mm 8 mps 764 mmHg 73%
    03:00 +10°C° 0 mm 8 mps 765 mmHg 70%
    04:00 +10°C° 0 mm 8 mps 765 mmHg 67%
    05:00 +9°C° 0 mm 8 mps 765 mmHg 68%
    06:00 +9°C° 0 mm 7 mps 766 mmHg 70%
    07:00 +9°C° 0 mm 7 mps 766 mmHg 71%
    08:00 +10°C° 0 mm 8 mps 767 mmHg 68%
    09:00 +11°C° 0 mm 8 mps 767 mmHg 64%
    10:00 +11°C° 0 mm 8 mps 768 mmHg 60%
    11:00 +12°C° 0 mm 8 mps 768 mmHg 59%
    12:00 +12°C° 0 mm 8 mps 768 mmHg 58%
    13:00 +12°C° 0 mm 8 mps 768 mmHg 57%
    14:00 +12°C° 0 mm 8 mps 768 mmHg 58%
    15:00 +11°C° 0 mm 7 mps 768 mmHg 59%
    16:00 +11°C° 0 mm 7 mps 768 mmHg 60%
    17:00 +10°C° 0 mm 7 mps 768 mmHg 64%
    18:00 +9°C° 0 mm 6 mps 769 mmHg 68%
    19:00 +8°C° 0 mm 6 mps 769 mmHg 72%
    20:00 +8°C° 0 mm 6 mps 769 mmHg 74%
    21:00 +7°C° 0 mm 6 mps 770 mmHg 75%
    22:00 +7°C° 0 mm 5 mps 770 mmHg 76%
    23:00 +7°C° 0 mm 5 mps 770 mmHg 76%

    29 September, Saturday

    Time Temperature Precipitation Wind Pressure Humidity
    00:00 +7°C° 0 mm 5 mps 770 mmHg 76%
    01:00 +6°C° 0 mm 5 mps 770 mmHg 76%
    02:00 +6°C° 0 mm 5 mps 770 mmHg 76%
    03:00 +6°C° 0 mm 4 mps 770 mmHg 76%
    04:00 +6°C° 0 mm 4 mps 771 mmHg 76%
    05:00 +7°C° 0 mm 3 mps 771 mmHg 77%
    06:00 +7°C° 0 mm 3 mps 771 mmHg 78%
    07:00 +7°C° 0 mm 3 mps 771 mmHg 78%
    08:00 +9°C° 0 mm 3 mps 771 mmHg 73%
    09:00 +10°C° 0 mm 3 mps 771 mmHg 68%
    10:00 +12°C° 0 mm 3 mps 772 mmHg 63%
    11:00 +12°C° 0 mm 3 mps 771 mmHg 62%
    12:00 +13°C° 0 mm 4 mps 771 mmHg 62%
    13:00 +13°C° 0 mm 4 mps 771 mmHg 61%
    14:00 +13°C° 0 mm 4 mps 771 mmHg 62%
    15:00 +13°C° 0 mm 4 mps 770 mmHg 63%
    16:00 +12°C° 0 mm 4 mps 770 mmHg 64%
    17:00 +12°C° 0 mm 4 mps 770 mmHg 67%
    18:00 +11°C° 0 mm 4 mps 769 mmHg 70%
    19:00 +10°C° 0 mm 4 mps 769 mmHg 74%
    20:00 +10°C° 0 mm 4 mps 769 mmHg 74%
    21:00 +9°C° 0 mm 5 mps 769 mmHg 75%
    22:00 +9°C° 0 mm 5 mps 769 mmHg 75%
    23:00 +9°C° 0 mm 5 mps 768 mmHg 75%

    30 September, Sunday

    Time Temperature Precipitation Wind Pressure Humidity
    00:00 +9°C° 0 mm 6 mps 768 mmHg 74%
    01:00 +9°C° 0 mm 6 mps 768 mmHg 74%
    02:00 +9°C° 0 mm 6 mps 767 mmHg 73%
    03:00 +10°C° 0 mm 6 mps 767 mmHg 73%
    04:00 +10°C° 0 mm 7 mps 766 mmHg 73%
    05:00 +10°C° 0 mm 7 mps 766 mmHg 73%
    06:00 +10°C° 0 mm 7 mps 766 mmHg 73%
    07:00 +10°C° 0 mm 7 mps 765 mmHg 73%
    08:00 +10°C° 0.1 mm 7 mps 765 mmHg 73%
    09:00 +11°C° 0.1 mm 8 mps 765 mmHg 72%
    10:00 +11°C° 0.1 mm 8 mps 765 mmHg 72%
    11:00 +11°C° 0.1 mm 8 mps 765 mmHg 70%
    12:00 +12°C° 0.1 mm 8 mps 764 mmHg 69%
    13:00 +12°C° 0.1 mm 8 mps 764 mmHg 68%
    14:00 +12°C° 0.1 mm 8 mps 764 mmHg 69%
    15:00 +12°C° 0.1 mm 8 mps 764 mmHg 70%
    16:00 +11°C° 0.1 mm 9 mps 763 mmHg 71%
    17:00 +11°C° 0.1 mm 8 mps 764 mmHg 72%
    18:00 +10°C° 0.1 mm 8 mps 764 mmHg 73%
    19:00 +10°C° 0.1 mm 8 mps 764 mmHg 74%
    20:00 +10°C° 0 mm 8 mps 764 mmHg 75%
    21:00 +9°C° 0 mm 8 mps 765 mmHg 75%
    22:00 +9°C° 0 mm 8 mps 765 mmHg 76%
    23:00 +9°C° 0 mm 8 mps 765 mmHg 77%
    Show more